WXM80 ListenWXM80 Stop

You find our weather info also at:

UK Metoffice

WeatherCloud

Weather Underground

Northeastern Weather Network

AWEKAS

Citizen Weather Observer Program (CWOP)

HAMweather, WeatherForYou, PWS Weather


Weather Underground History page Text

Daily Summary for March 4, 2018 Units:  English    Metric   Both
« Previous Day
Next Day »
Daily Weekly Monthly Yearly Custom
  High: Low: Average:
Temperature: 43.4 °F 34.7 °F 39.6 °F
Dew Point: 34.0 °F 26.1 °F 31.6 °F
Humidity: 80 % 66 % 73 %
Wind Speed: 12.7 mph 1.6 mph 6 mph
Wind Gust: 21.9 mph - -
Wind:- - SW
Pressure: 29.85 in 29.77 in -
Precipitation: 0.00 in    
Historical Graphs
 
 
Tabular Data for March 4, 2018
Time Temperature Dew Point Pressure Wind Wind Speed Wind Gust Humidity Rainfall Rate (Hourly)
00:04 40.0 °F 33.7 °F 29.83 in NNE 8.1 mph 11.5 mph 78 % 0.00 in
00:09 40.0 °F 33.7 °F 29.82 in North 8.9 mph 11.5 mph 78 % 0.00 in
00:14 40.0 °F 33.7 °F 29.83 in NNW 8.2 mph 15.0 mph 78 % 0.00 in
00:19 40.0 °F 33.7 °F 29.83 in NNE 7.2 mph 11.5 mph 78 % 0.00 in
00:24 40.0 °F 33.7 °F 29.83 in North 5.5 mph 10.4 mph 78 % 0.00 in
00:29 40.0 °F 33.7 °F 29.83 in North 8.1 mph 11.5 mph 78 % 0.00 in
00:34 40.0 °F 33.7 °F 29.83 in NNE 7.4 mph 11.5 mph 78 % 0.00 in
00:39 40.0 °F 33.7 °F 29.83 in NW 4.9 mph 10.4 mph 78 % 0.00 in
00:44 39.9 °F 33.6 °F 29.83 in NNE 6.3 mph 11.5 mph 78 % 0.00 in
00:49 40.0 °F 33.7 °F 29.83 in North 5.6 mph 11.0 mph 78 % 0.00 in
00:54 39.9 °F 33.6 °F 29.83 in NE 8.5 mph 13.8 mph 78 % 0.00 in
00:59 39.9 °F 33.6 °F 29.82 in NE 7.5 mph 10.4 mph 78 % 0.00 in
01:04 39.9 °F 33.6 °F 29.82 in North 7.3 mph 10.4 mph 78 % 0.00 in
01:09 39.9 °F 33.9 °F 29.82 in North 5.9 mph 9.0 mph 79 % 0.00 in
01:14 39.8 °F 33.8 °F 29.82 in North 6.1 mph 12.7 mph 79 % 0.00 in
01:19 39.8 °F 33.8 °F 29.82 in North 6.2 mph 9.0 mph 79 % 0.00 in
01:24 39.8 °F 33.8 °F 29.82 in North 4.9 mph 10.4 mph 79 % 0.00 in
01:30 39.8 °F 33.8 °F 29.82 in NNE 5.4 mph 8.1 mph 79 % 0.00 in
01:35 39.8 °F 33.8 °F 29.82 in NNW 5.8 mph 11.5 mph 79 % 0.00 in
01:40 39.7 °F 34.0 °F 29.82 in North 3.2 mph 8.1 mph 80 % 0.00 in
01:45 39.7 °F 33.7 °F 29.82 in NNW 4.7 mph 12.7 mph 79 % 0.00 in
01:50 39.7 °F 33.7 °F 29.82 in North 7.5 mph 11.5 mph 79 % 0.00 in
01:55 39.7 °F 33.7 °F 29.82 in NNW 3.8 mph 6.9 mph 79 % 0.00 in
02:00 39.7 °F 33.7 °F 29.82 in North 3.8 mph 5.8 mph 79 % 0.00 in
02:05 39.7 °F 34.0 °F 29.82 in NNE 6.8 mph 13.0 mph 80 % 0.00 in
02:10 39.6 °F 33.6 °F 29.82 in North 6.6 mph 11.5 mph 79 % 0.00 in
02:15 39.6 °F 33.6 °F 29.81 in North 5.1 mph 10.0 mph 79 % 0.00 in
02:20 39.6 °F 33.6 °F 29.81 in North 5.9 mph 10.4 mph 79 % 0.00 in
02:25 39.6 °F 33.6 °F 29.81 in NNE 3.5 mph 7.0 mph 79 % 0.00 in
02:30 39.6 °F 33.6 °F 29.81 in NNE 5.7 mph 9.2 mph 79 % 0.00 in
02:35 39.6 °F 33.6 °F 29.81 in North 6.6 mph 11.5 mph 79 % 0.00 in
02:40 39.6 °F 33.6 °F 29.81 in NNE 8.0 mph 11.5 mph 79 % 0.00 in
02:45 39.6 °F 33.6 °F 29.81 in North 5.5 mph 8.1 mph 79 % 0.00 in
02:51 39.6 °F 33.6 °F 29.81 in NNW 5.3 mph 11.0 mph 79 % 0.00 in
02:56 39.6 °F 33.6 °F 29.81 in North 5.0 mph 6.0 mph 79 % 0.00 in
03:01 39.5 °F 33.5 °F 29.81 in North 6.3 mph 10.4 mph 79 % 0.00 in
03:06 39.5 °F 33.5 °F 29.81 in NNE 5.3 mph 11.5 mph 79 % 0.00 in
03:11 39.5 °F 33.5 °F 29.81 in NNE 5.0 mph 10.4 mph 79 % 0.00 in
03:16 39.5 °F 33.5 °F 29.81 in North 6.4 mph 11.5 mph 79 % 0.00 in
03:21 39.5 °F 33.2 °F 29.81 in North 7.2 mph 11.5 mph 78 % 0.00 in
03:26 39.5 °F 33.2 °F 29.81 in NW 4.4 mph 7.0 mph 78 % 0.00 in
03:31 39.5 °F 33.2 °F 29.81 in NNE 7.5 mph 11.5 mph 78 % 0.00 in
03:36 39.5 °F 33.2 °F 29.81 in North 4.4 mph 9.2 mph 78 % 0.00 in
03:41 39.5 °F 32.9 °F 29.82 in North 4.2 mph 12.0 mph 77 % 0.00 in
03:46 39.5 °F 32.9 °F 29.81 in North 7.6 mph 11.5 mph 77 % 0.00 in
03:51 39.5 °F 32.9 °F 29.81 in North 6.6 mph 10.4 mph 77 % 0.00 in
03:56 39.5 °F 32.9 °F 29.82 in NNW 3.7 mph 9.2 mph 77 % 0.00 in
04:01 39.5 °F 32.9 °F 29.81 in North 3.8 mph 11.5 mph 77 % 0.00 in
04:07 39.5 °F 32.6 °F 29.81 in NW 7.8 mph 15.0 mph 76 % 0.00 in
04:12 39.5 °F 32.6 °F 29.82 in NNE 5.4 mph 12.7 mph 76 % 0.00 in
04:17 39.5 °F 32.2 °F 29.81 in NNW 10.1 mph 15.0 mph 75 % 0.00 in
04:22 39.5 °F 32.6 °F 29.81 in NNE 7.3 mph 11.5 mph 76 % 0.00 in
04:27 39.5 °F 32.2 °F 29.81 in North 6.8 mph 11.0 mph 75 % 0.00 in
04:32 39.5 °F 32.6 °F 29.82 in North 4.6 mph 10.4 mph 76 % 0.00 in
04:37 39.4 °F 32.5 °F 29.82 in North 5.8 mph 10.4 mph 76 % 0.00 in
04:42 39.4 °F 32.5 °F 29.82 in NNE 4.3 mph 8.1 mph 76 % 0.00 in
04:47 39.3 °F 32.4 °F 29.82 in NNW 7.7 mph 11.5 mph 76 % 0.00 in
04:52 39.3 °F 32.4 °F 29.82 in North 6.6 mph 9.2 mph 76 % 0.00 in
04:57 39.3 °F 32.7 °F 29.82 in North 7.2 mph 9.2 mph 77 % 0.00 in
05:02 39.3 °F 32.4 °F 29.82 in North 6.2 mph 11.5 mph 76 % 0.00 in
05:07 39.3 °F 32.4 °F 29.82 in NNW 7.3 mph 11.5 mph 76 % 0.00 in
05:13 39.3 °F 32.4 °F 29.82 in NNE 6.3 mph 11.5 mph 76 % 0.00 in
05:18 39.3 °F 32.4 °F 29.82 in North 5.7 mph 11.5 mph 76 % 0.00 in
05:23 39.3 °F 32.7 °F 29.82 in NNE 4.9 mph 9.2 mph 77 % 0.00 in
05:28 39.3 °F 32.7 °F 29.82 in North 6.1 mph 13.8 mph 77 % 0.00 in
05:33 39.2 °F 32.6 °F 29.82 in North 5.7 mph 11.5 mph 77 % 0.00 in
05:38 39.2 °F 32.6 °F 29.83 in North 6.1 mph 12.7 mph 77 % 0.00 in
05:43 39.2 °F 32.6 °F 29.83 in NNE 7.8 mph 13.0 mph 77 % 0.00 in
05:48 39.2 °F 32.6 °F 29.83 in NNW 4.9 mph 7.0 mph 77 % 0.00 in
05:53 39.2 °F 32.6 °F 29.83 in North 5.7 mph 10.4 mph 77 % 0.00 in
05:58 39.1 °F 32.5 °F 29.83 in North 5.4 mph 10.4 mph 77 % 0.00 in
06:03 39.1 °F 32.5 °F 29.83 in North 6.9 mph 10.0 mph 77 % 0.00 in
06:08 39.1 °F 32.5 °F 29.83 in North 5.0 mph 8.1 mph 77 % 0.00 in
06:13 39.1 °F 32.5 °F 29.83 in North 6.0 mph 8.1 mph 77 % 0.00 in
06:18 39.1 °F 32.5 °F 29.83 in North 7.5 mph 10.4 mph 77 % 0.00 in
06:23 39.1 °F 32.5 °F 29.83 in NNW 6.3 mph 10.4 mph 77 % 0.00 in
06:28 39.1 °F 32.5 °F 29.83 in North 6.8 mph 12.7 mph 77 % 0.00 in
06:33 39.1 °F 32.5 °F 29.83 in NNE 3.7 mph 6.9 mph 77 % 0.00 in
06:38 39.1 °F 32.5 °F 29.83 in North 5.9 mph 8.1 mph 77 % 0.00 in
06:43 39.1 °F 32.5 °F 29.83 in NNW 5.5 mph 11.0 mph 77 % 0.00 in
06:49 39.1 °F 32.5 °F 29.84 in NNE 7.1 mph 12.0 mph 77 % 0.00 in
06:54 39.1 °F 32.5 °F 29.84 in NNW 6.4 mph 11.5 mph 77 % 0.00 in
06:59 39.1 °F 32.2 °F 29.84 in NNE 5.8 mph 10.4 mph 76 % 0.00 in
07:04 39.1 °F 32.2 °F 29.84 in North 4.1 mph 10.4 mph 76 % 0.00 in
07:09 39.2 °F 32.3 °F 29.84 in NNE 5.0 mph 9.2 mph 76 % 0.00 in
07:14 39.2 °F 32.6 °F 29.84 in NNE 7.2 mph 11.5 mph 77 % 0.00 in
07:19 39.2 °F 32.6 °F 29.85 in NNW 4.3 mph 6.9 mph 77 % 0.00 in
07:24 39.2 °F 32.6 °F 29.85 in NNW 4.5 mph 9.2 mph 77 % 0.00 in
07:29 39.3 °F 32.7 °F 29.84 in NW 5.0 mph 10.4 mph 77 % 0.00 in
07:34 39.3 °F 32.7 °F 29.85 in NNE 3.0 mph 6.9 mph 77 % 0.00 in
07:39 39.3 °F 32.4 °F 29.85 in NNW 4.0 mph 6.9 mph 76 % 0.00 in
07:44 39.4 °F 32.8 °F 29.85 in North 5.1 mph 10.4 mph 77 % 0.00 in
07:49 39.4 °F 32.8 °F 29.85 in North 5.4 mph 11.5 mph 77 % 0.00 in
07:54 39.4 °F 32.5 °F 29.85 in North 6.8 mph 9.2 mph 76 % 0.00 in
07:59 39.4 °F 32.5 °F 29.85 in North 5.6 mph 11.5 mph 76 % 0.00 in
08:04 39.5 °F 32.6 °F 29.84 in North 4.1 mph 11.0 mph 76 % 0.00 in
08:09 39.5 °F 32.6 °F 29.84 in North 6.9 mph 10.0 mph 76 % 0.00 in
08:14 39.6 °F 32.7 °F 29.85 in North 5.9 mph 10.4 mph 76 % 0.00 in
08:19 39.7 °F 32.4 °F 29.84 in NNW 7.8 mph 11.5 mph 75 % 0.00 in
08:24 39.8 °F 32.5 °F 29.84 in NNE 7.0 mph 11.5 mph 75 % 0.00 in
08:30 39.9 °F 32.9 °F 29.85 in NNE 5.8 mph 11.5 mph 76 % 0.00 in
08:35 40.0 °F 32.7 °F 29.85 in North 8.0 mph 9.2 mph 75 % 0.00 in
08:40 40.1 °F 32.5 °F 29.85 in NNW 7.3 mph 13.8 mph 74 % 0.00 in
08:45 40.2 °F 32.6 °F 29.85 in North 6.9 mph 12.7 mph 74 % 0.00 in
08:50 40.3 °F 32.7 °F 29.85 in NNE 6.1 mph 11.5 mph 74 % 0.00 in
08:55 40.5 °F 32.5 °F 29.85 in NNE 9.0 mph 14.0 mph 73 % 0.00 in
09:00 40.7 °F 32.7 °F 29.85 in North 6.6 mph 10.4 mph 73 % 0.00 in
09:05 40.9 °F 32.6 °F 29.85 in North 8.6 mph 13.8 mph 72 % 0.00 in
09:10 40.9 °F 32.9 °F 29.85 in NNW 7.2 mph 9.2 mph 73 % 0.00 in
09:15 41.0 °F 32.7 °F 29.85 in North 5.8 mph 12.0 mph 72 % 0.00 in
09:20 41.0 °F 32.3 °F 29.85 in North 7.2 mph 10.4 mph 71 % 0.00 in
09:25 41.0 °F 32.3 °F 29.85 in NNE 7.9 mph 11.5 mph 71 % 0.00 in
09:30 41.0 °F 32.3 °F 29.85 in North 7.4 mph 11.5 mph 71 % 0.00 in
09:35 41.1 °F 32.4 °F 29.85 in North 8.4 mph 11.5 mph 71 % 0.00 in
09:40 41.1 °F 32.4 °F 29.85 in NNE 8.0 mph 15.0 mph 71 % 0.00 in
09:45 41.1 °F 31.7 °F 29.85 in NE 9.3 mph 12.7 mph 69 % 0.00 in
09:50 41.1 °F 31.7 °F 29.85 in North 9.2 mph 16.1 mph 69 % 0.00 in
09:55 41.1 °F 31.7 °F 29.85 in NNE 12.6 mph 21.9 mph 69 % 0.00 in
10:01 41.1 °F 31.3 °F 29.85 in North 11.5 mph 16.1 mph 68 % 0.00 in
10:06 41.2 °F 31.1 °F 29.85 in NNW 6.7 mph 16.1 mph 67 % 0.00 in
10:11 41.3 °F 31.9 °F 29.84 in North 7.8 mph 13.8 mph 69 % 0.00 in
10:16 41.3 °F 31.5 °F 29.85 in North 8.7 mph 15.0 mph 68 % 0.00 in
10:21 41.2 °F 31.4 °F 29.84 in NNW 6.9 mph 9.2 mph 68 % 0.00 in
10:26 41.2 °F 32.5 °F 29.84 in NNE 4.2 mph 8.1 mph 71 % 0.00 in
10:31 41.2 °F 32.5 °F 29.84 in NNE 7.7 mph 10.4 mph 71 % 0.00 in
10:36 41.2 °F 32.2 °F 29.84 in NNW 4.2 mph 6.9 mph 70 % 0.00 in
10:41 41.2 °F 32.5 °F 29.84 in NNE 6.1 mph 14.0 mph 71 % 0.00 in
10:46 41.1 °F 32.4 °F 29.84 in NNE 5.1 mph 9.2 mph 71 % 0.00 in
10:51 41.1 °F 32.4 °F 29.83 in NNE 5.5 mph 9.2 mph 71 % 0.00 in
10:56 41.2 °F 32.2 °F 29.84 in NNE 3.3 mph 8.1 mph 70 % 0.00 in
11:01 41.3 °F 32.6 °F 29.84 in NNW 3.5 mph 11.5 mph 71 % 0.00 in
11:06 41.3 °F 32.2 °F 29.83 in North 5.4 mph 11.5 mph 70 % 0.00 in
11:11 41.4 °F 32.3 °F 29.84 in NNE 5.7 mph 12.7 mph 70 % 0.00 in
11:16 41.6 °F 32.5 °F 29.84 in North 7.2 mph 11.5 mph 70 % 0.00 in
11:21 41.9 °F 33.2 °F 29.83 in North 6.0 mph 11.5 mph 71 % 0.00 in
11:26 42.4 °F 33.3 °F 29.83 in NNE 5.8 mph 9.2 mph 70 % 0.00 in
11:31 42.5 °F 33.0 °F 29.83 in NNE 9.0 mph 12.7 mph 69 % 0.00 in
11:36 42.6 °F 33.1 °F 29.83 in NNE 6.3 mph 11.5 mph 69 % 0.00 in
11:42 42.7 °F 33.2 °F 29.83 in NNE 5.0 mph 11.5 mph 69 % 0.00 in
11:47 42.8 °F 33.3 °F 29.83 in NNW 6.8 mph 11.5 mph 69 % 0.00 in
11:52 42.8 °F 33.0 °F 29.82 in NNE 7.7 mph 11.5 mph 68 % 0.00 in
11:57 42.9 °F 33.1 °F 29.82 in NNE 6.9 mph 11.5 mph 68 % 0.00 in
12:02 42.9 °F 32.3 °F 29.82 in NNW 7.8 mph 12.7 mph 66 % 0.00 in
12:07 42.8 °F 32.2 °F 29.82 in NE 7.8 mph 12.0 mph 66 % 0.00 in
12:12 42.8 °F 32.6 °F 29.81 in NNW 7.6 mph 10.4 mph 67 % 0.00 in
12:17 42.9 °F 32.7 °F 29.81 in NNE 6.7 mph 13.8 mph 67 % 0.00 in
12:22 43.0 °F 32.8 °F 29.81 in NNE 6.8 mph 10.4 mph 67 % 0.00 in
12:27 43.1 °F 33.3 °F 29.80 in North 5.4 mph 8.1 mph 68 % 0.00 in
12:32 43.2 °F 33.3 °F 29.80 in NNE 5.7 mph 8.1 mph 68 % 0.00 in
12:37 43.3 °F 33.8 °F 29.80 in NNE 5.7 mph 10.0 mph 69 % 0.00 in
12:42 43.3 °F 33.4 °F 29.80 in NNE 5.7 mph 8.1 mph 68 % 0.00 in
12:47 43.3 °F 33.4 °F 29.80 in North 6.2 mph 8.1 mph 68 % 0.00 in
12:52 43.3 °F 33.4 °F 29.80 in NNW 4.2 mph 6.9 mph 68 % 0.00 in
12:57 43.4 °F 33.9 °F 29.79 in NNW 5.5 mph 9.2 mph 69 % 0.00 in
13:02 43.3 °F 33.8 °F 29.79 in NNW 8.3 mph 15.0 mph 69 % 0.00 in
13:07 43.1 °F 33.3 °F 29.79 in NE 4.5 mph 10.4 mph 68 % 0.00 in
13:12 43.0 °F 33.5 °F 29.79 in North 5.5 mph 8.1 mph 69 % 0.00 in
13:17 43.1 °F 33.6 °F 29.79 in NE 4.8 mph 10.4 mph 69 % 0.00 in
13:22 43.1 °F 33.6 °F 29.79 in North 5.6 mph 9.2 mph 69 % 0.00 in
13:27 42.9 °F 33.4 °F 29.80 in NNE 5.6 mph 9.2 mph 69 % 0.00 in
13:32 42.8 °F 33.0 °F 29.79 in NNE 7.1 mph 11.5 mph 68 % 0.00 in
13:37 42.7 °F 33.2 °F 29.79 in North 4.9 mph 6.9 mph 69 % 0.00 in
13:43 42.7 °F 33.9 °F 29.79 in North 3.9 mph 7.0 mph 71 % 0.00 in
13:48 42.6 °F 33.9 °F 29.79 in NNE 3.5 mph 7.0 mph 71 % 0.00 in
13:53 42.5 °F 33.4 °F 29.78 in North 4.4 mph 9.2 mph 70 % 0.00 in
13:58 42.5 °F 33.0 °F 29.79 in North 6.2 mph 11.5 mph 69 % 0.00 in
14:03 42.4 °F 33.3 °F 29.78 in NNE 6.7 mph 11.0 mph 70 % 0.00 in
14:08 42.2 °F 32.4 °F 29.78 in NNW 6.1 mph 8.1 mph 68 % 0.00 in
14:13 42.1 °F 33.0 °F 29.78 in NNW 5.5 mph 10.4 mph 70 % 0.00 in
14:18 42.1 °F 33.0 °F 29.79 in North 4.2 mph 9.2 mph 70 % 0.00 in
14:23 42.3 °F 33.6 °F 29.78 in NNW 3.6 mph 4.6 mph 71 % 0.00 in
14:28 42.3 °F 32.8 °F 29.78 in NNW 4.8 mph 9.2 mph 69 % 0.00 in
14:33 42.3 °F 32.5 °F 29.78 in North 4.6 mph 8.1 mph 68 % 0.00 in
14:38 42.3 °F 32.5 °F 29.78 in North 4.6 mph 9.2 mph 68 % 0.00 in
14:43 42.3 °F 32.5 °F 29.78 in NW 4.2 mph 10.4 mph 68 % 0.00 in
14:48 42.4 °F 32.9 °F 29.78 in NW 2.9 mph 6.9 mph 69 % 0.00 in
14:53 42.4 °F 33.3 °F 29.78 in North 4.4 mph 6.9 mph 70 % 0.00 in
14:58 42.4 °F 32.9 °F 29.78 in NW 3.8 mph 11.5 mph 69 % 0.00 in
15:03 42.4 °F 32.9 °F 29.78 in North 4.2 mph 8.1 mph 69 % 0.00 in
15:08 42.4 °F 32.9 °F 29.78 in NNW 5.6 mph 8.1 mph 69 % 0.00 in
15:14 42.3 °F 32.5 °F 29.78 in North 3.9 mph 11.5 mph 68 % 0.00 in
15:19 42.2 °F 32.8 °F 29.78 in WNW 4.3 mph 6.9 mph 69 % 0.00 in
15:24 42.1 °F 33.0 °F 29.79 in NNW 4.8 mph 6.0 mph 70 % 0.00 in
15:29 42.0 °F 32.9 °F 29.78 in North 4.3 mph 12.0 mph 70 % 0.00 in
15:34 41.9 °F 32.8 °F 29.78 in North 2.2 mph 5.8 mph 70 % 0.00 in
15:39 41.9 °F 32.8 °F 29.78 in NNE 5.5 mph 13.0 mph 70 % 0.00 in
15:44 41.9 °F 32.8 °F 29.78 in North 4.8 mph 10.4 mph 70 % 0.00 in
15:49 41.8 °F 32.4 °F 29.78 in NE 3.6 mph 9.2 mph 69 % 0.00 in
15:54 41.7 °F 32.6 °F 29.78 in North 4.3 mph 5.8 mph 70 % 0.00 in
15:59 41.6 °F 32.5 °F 29.78 in NW 3.4 mph 7.0 mph 70 % 0.00 in
16:04 41.4 °F 32.3 °F 29.78 in NNW 3.6 mph 10.4 mph 70 % 0.00 in
16:10 41.3 °F 32.2 °F 29.78 in North 3.4 mph 4.6 mph 70 % 0.00 in
16:15 41.2 °F 32.5 °F 29.78 in North 4.4 mph 9.2 mph 71 % 0.00 in
16:20 41.0 °F 32.0 °F 29.78 in North 4.4 mph 5.8 mph 70 % 0.00 in
16:25 40.9 °F 31.9 °F 29.78 in North 4.4 mph 5.0 mph 70 % 0.00 in
16:30 40.7 °F 32.0 °F 29.78 in North 1.7 mph 3.5 mph 71 % 0.00 in
16:35 40.6 °F 32.3 °F 29.79 in North 3.2 mph 6.9 mph 72 % 0.00 in
16:40 40.6 °F 32.3 °F 29.78 in North 2.4 mph 9.2 mph 72 % 0.00 in
16:45 40.6 °F 32.3 °F 29.79 in North 1.8 mph 4.6 mph 72 % 0.00 in
16:50 40.6 °F 32.6 °F 29.79 in North 3.8 mph 5.8 mph 73 % 0.00 in
16:55 40.5 °F 32.2 °F 29.79 in North 3.7 mph 5.0 mph 72 % 0.00 in
17:00 40.5 °F 32.2 °F 29.79 in North 4.8 mph 10.4 mph 72 % 0.00 in
17:05 40.5 °F 32.2 °F 29.79 in North 4.2 mph 6.9 mph 72 % 0.00 in
17:10 40.5 °F 32.2 °F 29.79 in NNW 6.8 mph 16.0 mph 72 % 0.00 in
17:15 40.4 °F 31.7 °F 29.79 in NNW 5.6 mph 10.0 mph 71 % 0.00 in
17:20 40.3 °F 31.3 °F 29.79 in NNW 6.2 mph 9.2 mph 70 % 0.00 in
17:25 40.3 °F 30.9 °F 29.80 in North 5.8 mph 13.8 mph 69 % 0.00 in
17:30 40.2 °F 31.5 °F 29.80 in North 3.6 mph 5.8 mph 71 % 0.00 in
17:35 40.2 °F 31.9 °F 29.80 in North 5.3 mph 7.0 mph 72 % 0.00 in
17:40 40.0 °F 31.7 °F 29.80 in NNW 3.1 mph 5.8 mph 72 % 0.00 in
17:45 39.9 °F 31.6 °F 29.80 in NNW 3.2 mph 8.1 mph 72 % 0.00 in
17:50 39.9 °F 31.6 °F 29.80 in NNW 3.3 mph 6.9 mph 72 % 0.00 in
17:55 39.8 °F 32.2 °F 29.80 in NNW 2.7 mph 8.1 mph 74 % 0.00 in
18:01 39.7 °F 32.1 °F 29.80 in NW 1.6 mph 4.6 mph 74 % 0.00 in
18:06 39.6 °F 32.0 °F 29.81 in North 6.0 mph 10.0 mph 74 % 0.00 in
18:11 39.5 °F 31.6 °F 29.81 in North 3.0 mph 8.0 mph 73 % 0.00 in
18:16 39.5 °F 31.6 °F 29.81 in NNW 3.0 mph 12.0 mph 73 % 0.00 in
18:21 39.4 °F 30.8 °F 29.81 in North 3.0 mph 9.0 mph 71 % 0.00 in
18:26 39.3 °F 30.3 °F 29.81 in North 5.0 mph 14.0 mph 70 % 0.00 in
18:31 39.3 °F 30.3 °F 29.81 in North 5.0 mph 9.0 mph 70 % 0.00 in
18:36 39.2 °F 30.3 °F 29.81 in NNW 3.0 mph 10.0 mph 70 % 0.00 in
18:41 39.2 °F 30.6 °F 29.81 in NNW 6.0 mph 10.0 mph 71 % 0.00 in
18:46 39.1 °F 30.1 °F 29.81 in NNW 3.0 mph 15.0 mph 70 % 0.00 in
18:51 39.0 °F 29.3 °F 29.82 in NNW 6.0 mph 15.0 mph 68 % 0.00 in
18:56 39.0 °F 29.3 °F 29.81 in NNW 6.0 mph 15.0 mph 68 % 0.00 in
19:01 38.9 °F 28.9 °F 29.82 in NNW 6.3 mph 11.5 mph 67 % 0.00 in
19:06 38.8 °F 28.8 °F 29.81 in North 5.5 mph 11.5 mph 67 % 0.00 in
19:11 38.8 °F 29.1 °F 29.81 in WSW 7.5 mph 11.5 mph 68 % 0.00 in
19:16 38.7 °F 29.8 °F 29.81 in NNW 4.6 mph 10.4 mph 70 % 0.00 in
19:21 38.6 °F 30.0 °F 29.81 in North 4.1 mph 6.9 mph 71 % 0.00 in
19:26 38.4 °F 29.8 °F 29.81 in NNW 7.9 mph 11.5 mph 71 % 0.00 in
19:31 38.2 °F 30.0 °F 29.81 in NNW 4.9 mph 10.4 mph 72 % 0.00 in
19:36 38.1 °F 29.5 °F 29.81 in NNW 4.7 mph 10.4 mph 71 % 0.00 in
19:41 37.9 °F 29.3 °F 29.81 in North 6.7 mph 15.0 mph 71 % 0.00 in
19:46 37.7 °F 28.8 °F 29.81 in NNW 5.8 mph 11.0 mph 70 % 0.00 in
19:51 37.5 °F 28.9 °F 29.81 in North 7.2 mph 12.7 mph 71 % 0.00 in
19:56 37.4 °F 28.5 °F 29.82 in North 8.9 mph 19.6 mph 70 % 0.00 in
20:01 37.3 °F 28.8 °F 29.81 in North 5.4 mph 9.2 mph 71 % 0.00 in
20:06 37.1 °F 28.6 °F 29.81 in WNW 4.6 mph 8.1 mph 71 % 0.00 in
20:11 37.0 °F 28.8 °F 29.82 in NNW 5.3 mph 11.0 mph 72 % 0.00 in
20:16 36.8 °F 28.6 °F 29.82 in NNE 7.0 mph 8.1 mph 72 % 0.00 in
20:21 36.6 °F 28.4 °F 29.82 in NNW 9.2 mph 13.8 mph 72 % 0.00 in
20:26 36.4 °F 28.6 °F 29.82 in North 6.8 mph 10.4 mph 73 % 0.00 in
20:31 36.3 °F 28.5 °F 29.82 in NW 6.9 mph 13.8 mph 73 % 0.00 in
20:36 36.2 °F 28.0 °F 29.81 in NW 6.5 mph 15.0 mph 72 % 0.00 in
20:42 36.1 °F 27.6 °F 29.82 in NW 7.9 mph 19.6 mph 71 % 0.00 in
20:47 36.0 °F 27.5 °F 29.82 in NNW 8.3 mph 15.0 mph 71 % 0.00 in
20:52 35.9 °F 27.4 °F 29.81 in WNW 6.1 mph 12.7 mph 71 % 0.00 in
20:57 35.9 °F 27.7 °F 29.81 in WNW 8.3 mph 16.1 mph 72 % 0.00 in
21:02 35.8 °F 27.7 °F 29.81 in NNW 7.2 mph 11.5 mph 72 % 0.00 in
21:07 35.7 °F 27.6 °F 29.81 in NNW 6.5 mph 10.4 mph 72 % 0.00 in
21:12 35.6 °F 27.5 °F 29.81 in NW 9.1 mph 13.8 mph 72 % 0.00 in
21:17 35.6 °F 27.5 °F 29.81 in North 7.0 mph 11.5 mph 72 % 0.00 in
21:22 35.5 °F 27.4 °F 29.81 in North 4.1 mph 11.5 mph 72 % 0.00 in
21:27 35.5 °F 27.4 °F 29.81 in NW 8.4 mph 11.5 mph 72 % 0.00 in
21:32 35.5 °F 27.4 °F 29.81 in NNW 4.8 mph 10.4 mph 72 % 0.00 in
21:37 35.4 °F 27.3 °F 29.81 in NNW 8.8 mph 9.2 mph 72 % 0.00 in
21:42 35.4 °F 26.9 °F 29.81 in NNW 6.8 mph 12.7 mph 71 % 0.00 in
21:47 35.4 °F 26.9 °F 29.80 in NNW 10.4 mph 13.8 mph 71 % 0.00 in
21:52 35.3 °F 26.8 °F 29.81 in North 7.5 mph 15.0 mph 71 % 0.00 in
21:58 35.3 °F 26.5 °F 29.81 in North 4.1 mph 6.9 mph 70 % 0.00 in
22:03 35.3 °F 26.5 °F 29.81 in North 7.6 mph 17.3 mph 70 % 0.00 in
22:08 35.2 °F 26.4 °F 29.81 in NW 6.0 mph 13.8 mph 70 % 0.00 in
22:13 35.2 °F 26.7 °F 29.80 in NNW 7.3 mph 12.0 mph 71 % 0.00 in
22:18 35.2 °F 26.4 °F 29.80 in NNW 12.7 mph 19.6 mph 70 % 0.00 in
22:23 35.3 °F 26.5 °F 29.80 in North 10.1 mph 19.6 mph 70 % 0.00 in
22:28 35.2 °F 26.4 °F 29.79 in North 6.8 mph 11.5 mph 70 % 0.00 in
22:33 35.2 °F 26.4 °F 29.79 in NNW 6.0 mph 15.0 mph 70 % 0.00 in
22:38 35.2 °F 26.7 °F 29.79 in NNW 6.8 mph 11.5 mph 71 % 0.00 in
22:43 35.1 °F 26.6 °F 29.79 in North 8.8 mph 15.0 mph 71 % 0.00 in
22:48 35.1 °F 26.6 °F 29.79 in WNW 7.3 mph 12.7 mph 71 % 0.00 in
22:53 35.0 °F 26.5 °F 29.79 in NW 6.2 mph 12.0 mph 71 % 0.00 in
22:58 35.0 °F 26.5 °F 29.78 in North 7.9 mph 13.8 mph 71 % 0.00 in
23:03 35.0 °F 26.5 °F 29.78 in NNE 3.4 mph 12.0 mph 71 % 0.00 in
23:08 35.0 °F 26.5 °F 29.78 in North 7.8 mph 12.0 mph 71 % 0.00 in
23:13 35.0 °F 26.2 °F 29.78 in NW 8.8 mph 18.4 mph 70 % 0.00 in
23:18 35.0 °F 26.5 °F 29.78 in NNW 8.9 mph 15.0 mph 71 % 0.00 in
23:23 35.0 °F 26.2 °F 29.78 in North 9.5 mph 16.1 mph 70 % 0.00 in
23:28 34.9 °F 26.1 °F 29.78 in North 4.7 mph 12.7 mph 70 % 0.00 in
23:34 34.9 °F 26.1 °F 29.77 in NNW 7.7 mph 19.6 mph 70 % 0.00 in
23:39 34.9 °F 26.4 °F 29.78 in NNW 5.9 mph 11.5 mph 71 % 0.00 in
23:44 34.9 °F 26.4 °F 29.77 in NNW 8.2 mph 12.7 mph 71 % 0.00 in
23:49 34.8 °F 26.4 °F 29.77 in NW 8.4 mph 11.5 mph 71 % 0.00 in
23:54 34.8 °F 26.7 °F 29.77 in NNW 9.2 mph 12.7 mph 72 % 0.00 in
23:59 34.7 °F 26.6 °F 29.77 in NNW 6.4 mph 15.0 mph 72 % 0.00 in
Crab Meadow Weather
Compliments of Weather Underground - 3 mb

Script developed by  Jim McMurry - jmcmurry@mwt.net Adapted for the template by  Wim van der Kuil - Leuven-Template.eu

Weather Terms: Flood Watch - Conditions are favorable for flash flooding in and close to the watch area. These watches are issued by the Weather Forecast Office in Upton and are usually for the first 12 to 24 hours of a forecast.